Regional Weather Roundup
Issued by NWS

Home | Current Version | Previous Version | Graphics & Text | Print | Product List | Glossary On
Versions: 1 2 3 4 5 6 7 8 9 10 11 12 13 14 15 16 17 18 19 20 21 22 23 24 25 26 27 28 29 30 31 32 33 34 35 36 37 38 39 40 41 42 43 44 45 46 47 48 49 50
000
ASUS43 KIND 241009
RWRIN

WEATHER ROUNDUP FOR INDIANA
NATIONAL WEATHER SERVICE INDIANAPOLIS IN
600 AM EDT THU MAY 24 2018

NOTE: "FAIR" INDICATES FEW OR NO CLOUDS BELOW 12,000 FEET WITH NO
SIGNIFICANT WEATHER AND/OR OBSTRUCTIONS TO VISIBILITY.

* - STATION DOES NOT REPORT WEATHER SUCH AS PRECIPITATION OR FOG.

+ - STATION NOT QUALITY CONTROLLED BY THE NATIONAL WEATHER SERVICE.
    USE DATA WITH CAUTION...ESPECIALLY DEWPOINT AND RELATIVE
    HUMIDITY OBSERVATIONS.

INZ001>003-010>013-019-020-241100-
NORTHWEST INDIANA

CITY           SKY/WX    TMP DP  RH WIND       PRES   REMARKS
GARY /AIRPORT/ PTCLDY    54  54 100 CALM      30.19R
KNOX *+        FAIR      55  54  94 SE5       30.19R
LA PORTE +     FAIR      56  55  95 CALM      30.21R
MICHIGAN CITY+ FAIR      54  54 100 CALM      30.20R
MONTICELLO +   FAIR      58  55  89 CALM      30.19R
RENSSELAER +   FAIR      59  50  72 CALM      30.19R
VALPARAISO     FAIR      57  55  93 NE5       30.20R

$$

LMZ046-743>745-241100-
SOUTHERN LAKE MICHIGAN

STATION/POSITION TIME  TEMP    WIND        PRES    WAVE
                       AIR SEA DIR/SP/G            HT
                 (UTC) (F)     (DEG/KT/KT) (MB)    (FT)
BURNS HARBOR     0940   65      CALM  /  7 1022.4R
MICHIGAN CITY    0940   61     120/  9/  9   N/A
5NW MICH CITY    1000   58 56  130/  4/  6   N/A     0

$$

INZ004-005-014>016-021>024-241100-
NORTH CENTRAL INDIANA

CITY           SKY/WX    TMP DP  RH WIND       PRES   REMARKS
GOSHEN         FAIR      54  53  97 CALM      30.21R FOG
LOGANSPORT +   FAIR      55  52  88 CALM      30.20R
ROCHESTER +    FAIR      57  54  88 CALM      30.20R
SOUTH BEND     FAIR      58  55  90 CALM      30.21R
WARSAW +       FAIR      52  52 100 CALM      30.21R

$$

INZ006>009-017-018-025>027-241100-
NORTHEAST INDIANA

CITY           SKY/WX    TMP DP  RH WIND       PRES   REMARKS
ANGOLA *+      FAIR      54  52  94 CALM      30.21R
AUBURN +       FAIR      52  50  93 CALM      30.22R
FORT WAYNE     FAIR      54  52  93 CALM      30.21R
HUNTINGTON +   FAIR      53  51  95 CALM      30.20R

$$

INZ028-029-035-036-043>045-051>053-241100-
WEST CENTRAL INDIANA

CITY           SKY/WX    TMP DP  RH WIND       PRES   REMARKS
CRAWFORDSVL +  FAIR      55  54  94 SE3       30.18S
GREENCASTLE +  FAIR      57  52  82 CALM      30.18S
LAFAYETTE      FAIR      55  55 100 NE3       30.18R
TERRE HAUTE    FAIR      59  54  83 CALM      30.16S

$$

INZ030>032-037>040-046>048-054>057-064-065-241100-
CENTRAL INDIANA

CITY           SKY/WX    TMP DP  RH WIND       PRES   REMARKS
ANDERSON       FAIR      54  51  92 CALM      30.20R
FISHERS *+     FAIR      54  54 100 CALM      30.19S
FRANKFORT +    FAIR      59  54  82 SE7       30.21R
GREENWOOD *+   FAIR      59  53  78 E5        30.19R
INDIANAPOLIS   FAIR      63  53  70 E3        30.18R
-EAGLE CREEK   FAIR      57  52  83 CALM      30.18R
KOKOMO +       FAIR      58  53  84 SE3       30.20S
MARION +       FAIR      55  52  89 CALM      30.21R
MT COMFORT *+  FAIR      55  54  94 CALM      30.20R
SHELBYVILLE    FAIR      59  52  77 NE5       30.18R
ZIONSVILLE +   FAIR      55  53  94 CALM      30.20R

$$

INZ033-034-041-042-049-050-058-059-241100-
EAST CENTRAL INDIANA

CITY           SKY/WX    TMP DP  RH WIND       PRES   REMARKS
MUNCIE         FAIR      57  50  77 CALM      30.20R
RICHMOND +     FAIR      54  52  94 E5        30.21R

$$

INZ060-061-067>069-081>083-085>088-241100-
SOUTHWEST INDIANA

CITY           SKY/WX    TMP DP  RH WIND       PRES   REMARKS
EVANSVILLE     FAIR      64  60  87 N3        30.14R
HUNTINGBURG +  FAIR      61  58  90 NE5       30.15R
WASHINGTON +   FAIR      61  54  78 CALM      30.15S

$$

INZ062-063-066-070>080-084-089>092-241100-
SOUTH CENTRAL AND SOUTHEAST INDIANA

CITY           SKY/WX    TMP DP  RH WIND       PRES   REMARKS
BATESVILLE +   CLEAR     55  55 100 CALM      30.19R
BEDFORD +      FAIR      59  54  82 E3        30.16R
BLOOMINGTON    FAIR      58  56  93 CALM      30.17R
FRENCH LICK *+ FAIR      59  59 100 NE3       30.16S
MADISON *+     FAIR      59  55  88 CALM      30.20R
SEYMOUR +      FAIR      61  57  88 CALM      30.17R

$$





USA.gov is the U.S. government's official web portal to all federal, state and local government web resources and services.